#timestamp,LO_Frequency,Hit,StdDev 
1552255215.3,286046998.7,N
1552255235.2,286046998.7,N
1552255255.0,286047000.0,N
1552255255.9,286047000.0,N
1552255275.8,286047001.0,N
1552255295.6,286046998.3,N
1552255315.4,286046998.6,N
1552255335.3,286047000.7,N
1552255355.1,286046998.8,N
1552255375.8,286047000.0,N
1552255395.7,286047002.7,N
1552255415.5,286047002.3,N
1552255435.4,286047002.7,N
1552255455.2,286047003.9,N
1552255475.0,286047001.9,N
1552255475.9,286047001.9,N
1552255495.8,286047002.3,N
1552255515.6,286047001.8,N
1552255535.4,286047004.2,N
1552255555.3,286047004.4,N
1552255575.1,286047004.1,N
1552255595.9,286047003.1,N
1552255615.7,286047003.0,N
1552255635.5,286047004.2,N
1552255655.4,286047004.3,N
1552255675.2,286047003.8,N
1552255695.1,286047003.3,N
1552255696.0,286047003.3,N
1552255715.8,286047003.2,N
1552255735.6,286047001.3,N
1552255755.5,286047001.8,N
1552255775.3,286047003.7,N
1552255795.1,286047005.3,N
1552255815.9,286047005.8,Y
1552255835.7,286047000.3,P
1552255855.6,286047000.2,N
1552255875.4,286046999.4,N
1552255895.2,286046999.3,N
1552255915.1,286046998.6,N
1552255916.0,286046998.6,N
1552255935.8,286046998.8,N
1552255955.7,286046996.5,Y
1552255975.5,286046998.9,P
1552255995.3,286047001.2,N
1552256015.2,286046999.0,N
1552256035.0,286047000.9,N
1552256035.9,286047000.9,N
1552256055.7,286047000.5,N
1552256075.6,286046996.5,Y
1552256095.4,286046996.9,P
1552256115.3,286046998.4,N
1552256135.1,286046998.3,N
1552256136.0,286046998.3,N
1552256155.8,286046998.8,N
1552256175.7,286046998.3,N
1552256195.5,286046997.8,N
1552256215.4,286046997.5,N
1552256235.2,286046997.6,N
1552256255.0,286046995.4,Y
1552256255.9,286046995.4,P
1552256275.8,286046999.1,N
1552256295.6,286046999.1,N
1552256315.5,286046995.0,Y
1552256335.3,286046999.6,P
1552256355.1,286046996.9,P
1552256375.9,286046998.7,N
1552256395.7,286046996.8,Y
1552256415.6,286047000.7,P
1552256435.4,286046998.2,N
1552256455.2,286047000.6,N
1552256475.1,286047000.5,N
1552256476.0,286047000.5,N
1552256495.8,286047002.0,N
1552256515.6,286046999.9,N
1552256535.5,286047000.3,N
1552256555.3,286047000.9,N
1552256575.2,286047002.6,N
1552256595.9,286047001.3,N
1552256615.7,286047001.8,N
1552256635.6,286047003.8,Y
1552256655.4,286047004.1,P
1552256675.2,286047005.3,N
1552256695.1,286047004.8,N
1552256696.0,286047004.8,N
1552256715.8,286047005.3,Y
1552256735.7,286047002.5,P
1552256755.5,286047002.2,P
1552256775.3,286047002.7,P
1552256795.2,286047002.3,Y
1552256815.0,286046999.6,P
1552256815.9,286046999.6,N
1552256835.8,286046998.4,N
1552256855.6,286046996.5,N
1552256875.4,286046997.2,N
1552256895.3,286046997.2,N
1552256915.1,286046997.3,N
1552256935.8,286046997.8,N
1552256955.7,286046995.9,N
1552256975.5,286046995.8,N
1552256995.4,286046998.8,N
1552257015.2,286046997.0,N
1552257035.0,286046999.6,N
1552257035.9,286046999.6,N
1552257055.8,286046999.3,N
1552257075.6,286046999.0,N
1552257095.5,286046996.8,N
1552257115.3,286046999.1,N
1552257135.1,286046998.7,N
1552257155.9,286046996.5,N
1552257175.7,286046997.0,N
1552257195.5,286046997.2,N
1552257215.4,286046997.7,N
1552257235.2,286046999.5,N
1552257255.1,286046998.8,N
1552257256.0,286046998.8,N
1552257275.8,286046997.7,N
1552257295.6,286046997.2,N
1552257315.5,286046997.5,N
1552257335.3,286046996.8,N
1552257355.1,286046998.3,N
1552257375.9,286046997.1,N
1552257395.7,286046998.5,N
1552257415.6,286047000.9,N
1552257435.4,286047000.7,N
1552257455.2,286047000.6,N
1552257475.1,286046998.9,N
1552257476.0,286046998.9,N
1552257495.8,286046998.7,N
1552257515.7,286046999.0,N
1552257535.5,286046998.8,N
1552257555.3,286046996.5,N
1552257575.2,286046999.0,N
1552257595.0,286046994.9,Y
1552257595.9,286046994.9,P
1552257615.8,286046997.4,N
1552257635.6,286046998.0,N
1552257655.4,286046997.4,N
1552257675.3,286046997.6,N
1552257695.1,286046997.0,N
1552257715.8,286046996.7,Y
1552257735.7,286047000.8,P
1552257755.5,286047000.8,N
1552257775.4,286047000.0,N
1552257795.2,286047000.9,N
1552257815.0,286046998.2,N
1552257815.9,286046998.2,N
1552257835.8,286047000.7,N
1552257855.6,286046998.2,N
1552257875.4,286047002.8,N
1552257895.3,286047001.3,N
1552257915.1,286047003.5,N
1552257935.9,286047001.4,N
1552257955.7,286047001.5,N
1552257975.5,286047002.2,N
1552257995.4,286047001.4,N
1552258015.2,286047003.8,N
1552258035.1,286047004.3,N
1552258036.0,286047004.3,N
1552258055.8,286047004.2,N
1552258075.6,286047003.4,N
1552258095.5,286047003.0,N
1552258115.3,286047003.6,N
1552258135.1,286047003.3,N
1552258155.9,286047004.0,N
1552258175.7,286047003.2,N
1552258195.6,286047005.4,N
1552258215.4,286047005.9,N
1552258235.2,286047005.7,N
1552258255.1,286047006.0,N
1552258256.0,286047006.0,N
1552258275.8,286047004.2,N
1552258295.6,286047003.5,N
1552258315.5,286047005.7,N
1552258335.3,286047003.5,N
1552258355.2,286047003.2,N
1552258375.9,286047005.6,N
1552258395.7,286047002.9,N
1552258415.6,286047006.5,Y
1552258435.4,286047004.0,P
1552258455.2,286047005.4,P
1552258475.1,286047004.8,P
1552258476.0,286047004.8,Y
1552258495.8,286046999.9,P
1552258515.7,286047000.3,N
1552258535.5,286047000.5,N
1552258555.3,286046998.1,N
1552258575.2,286046996.6,N
1552258595.0,286046998.9,N
1552258595.9,286046998.9,N
1552258615.8,286046998.5,N
1552258635.6,286046999.0,N
1552258655.4,286046998.9,N
1552258675.3,286046998.2,N
1552258695.1,286047000.5,N
1552258715.8,286047000.3,N
1552258735.7,286047000.4,N
1552258755.5,286047000.6,N
1552258775.4,286047000.2,N
1552258795.2,286047002.0,N
